Weather History for Omaha Millard, NE

Change the Weather History Date:

Friday, May 3, 2013

  Actual Average (KOMA) Record (KOMA)
Temperature  
Mean Temperature 40 °F 58 °F  
Max Temperature 47 °F 70 °F 92 °F (1949)
Min Temperature 33 °F 47 °F 26 °F (1907)
Degree Days  
Heating Degree Days 25 8  
Month to date heating degree days 24  
Since 1 July heating degree days 6026  
Cooling Degree Days 0 1  
Month to date cooling degree days 3  
Year to date cooling degree days 19  
Moisture  
Dew Point 30 °F    
Average Humidity 65    
Maximum Humidity 82    
Minimum Humidity 51    
Precipitation  
Precipitation 0.00 in 0.13 in 1.92 in (1981)
Month to date precipitation 0.39  
Year to date precipitation 6.91  
Snow  
Snow 0.00 in 0.00 in - ()
Month to date snowfall 0.0  
Since 1 July snowfall 26.4  
Snow Depth -    
Sea Level Pressure  
Sea Level Pressure 30.20 in    
Wind  
Wind Speed 7 mph (NNW)    
Max Wind Speed 16 mph    
Max Gust Speed 30 mph    
Visibility 10 miles    
Events      
T = Trace of Precipitation, MM = Missing Value Source: NWS Daily Summary

Daily Weather History Graph

Daily Weather History Graph

Search for Another Location

Airport:

Trip Planner

Search our weather history database for the weather conditions in past years. The results will help you decide how hot, cold, wet, or windy it might be!

Date:

Astronomy

May. 03, 2013 Rise Set
Actual Time 6:19 AM CDT 8:24 PM CDT
Civil Twilight 5:49 AM CDT 8:54 PM CDT
Nautical Twilight 5:12 AM CDT 9:31 PM CDT
Astronomical Twilight 4:31 AM CDT 10:12 PM CDT
Moon 2:48 AM CDT (5/3) 2:16 PM CDT (5/3)
Length of Visible Light 15h 05m
Length of Day
14h 04m
Last Quarter, 37% of the Moon is Illuminated
May 3
Last Quarter
May 9
New
May 17
First Quarter
May 24
Full
May 31
Last Quarter

Hourly Weather History & Observations

Time (CDT) Temp. Windchill Dew Point Humidity Pressure Visibility Wind Dir Wind Speed Gust Speed Precip Events Conditions
12:15 AM 40.6 °F 38.6 °F 28.9 °F 63% 30.39 in 10.0 mi NNW 3.5 mph - N/A   Clear
12:35 AM 40.1 °F 36.9 °F 29.1 °F 65% 30.38 in 10.0 mi NNW 4.6 mph - N/A   Clear
12:55 AM 39.6 °F - 29.1 °F 66% 30.38 in 10.0 mi Calm Calm - N/A   Clear
1:15 AM 38.8 °F 36.5 °F 28.9 °F 68% 30.36 in 10.0 mi North 3.5 mph - N/A   Clear
1:35 AM 38.5 °F 36.1 °F 28.9 °F 69% 30.35 in 10.0 mi North 3.5 mph - N/A   Clear
1:55 AM 37.9 °F - 28.8 °F 70% 30.35 in 10.0 mi Calm Calm - N/A   Clear
2:15 AM 37.4 °F 34.9 °F 28.6 °F 70% 30.35 in 10.0 mi NNW 3.5 mph - N/A   Clear
2:35 AM 37.0 °F 34.5 °F 28.9 °F 73% 30.34 in 10.0 mi NNW 3.5 mph - N/A   Clear
2:55 AM 36.5 °F 33.9 °F 28.6 °F 73% 30.34 in 10.0 mi NNW 3.5 mph - N/A   Clear
3:15 AM 36.1 °F 32.3 °F 28.4 °F 73% 30.33 in 10.0 mi NW 4.6 mph - N/A   Clear
3:35 AM 35.8 °F 29.4 °F 28.6 °F 75% 30.32 in 10.0 mi NW 8.1 mph - N/A   Clear
3:55 AM 35.8 °F 30.9 °F 28.4 °F 75% 30.31 in 10.0 mi NNW 5.8 mph - N/A   Clear
4:15 AM 35.1 °F 30.1 °F 28.2 °F 76% 30.31 in 10.0 mi NNW 5.8 mph - N/A   Clear
4:35 AM 34.9 °F 29.9 °F 28.2 °F 77% 30.31 in 10.0 mi NNW 5.8 mph - N/A   Clear
4:55 AM 33.8 °F 28.6 °F 28.4 °F 81% 30.31 in 10.0 mi NW 5.8 mph - N/A   Clear
5:15 AM 33.8 °F 28.6 °F 28.4 °F 81% 30.31 in 10.0 mi NNW 5.8 mph - N/A   Clear
5:35 AM 33.8 °F 28.6 °F 28.2 °F 80% 30.31 in 10.0 mi NNW 5.8 mph - N/A   Clear
5:55 AM 33.4 °F 26.6 °F 28.4 °F 82% 30.30 in 10.0 mi NW 8.1 mph - N/A   Clear
6:15 AM 33.6 °F 26.2 °F 28.4 °F 81% 30.29 in 10.0 mi NW 9.2 mph - N/A   Clear
6:35 AM 33.4 °F 24.8 °F 28.4 °F 82% 30.29 in 10.0 mi NNW 11.5 mph - N/A   Clear
6:55 AM 33.8 °F 27.0 °F 28.4 °F 81% 30.29 in 10.0 mi NW 8.1 mph - N/A   Clear
7:15 AM 33.6 °F 26.2 °F 28.4 °F 81% 30.29 in 10.0 mi NW 9.2 mph - N/A   Clear
7:35 AM 33.8 °F 25.8 °F 28.4 °F 81% 30.30 in 10.0 mi NW 10.4 mph - N/A   Clear
7:55 AM 33.8 °F 25.8 °F 28.4 °F 81% 30.29 in 10.0 mi NNW 10.4 mph - N/A   Clear
8:15 AM 34.2 °F 26.2 °F 28.6 °F 80% 30.29 in 10.0 mi NW 10.4 mph 17.3 mph N/A   Clear
8:35 AM 34.5 °F 26.7 °F 28.8 °F 79% 30.29 in 10.0 mi NNW 10.4 mph - N/A   Clear
8:55 AM 36.3 °F 30.1 °F 28.9 °F 75% 30.29 in 10.0 mi North 8.1 mph 18.4 mph N/A   Clear
9:15 AM 36.7 °F 29.9 °F 28.4 °F 72% 30.28 in 10.0 mi North 9.2 mph - N/A   Scattered Clouds
9:35 AM 38.3 °F 31.9 °F 28.9 °F 69% 30.26 in 10.0 mi NNW 9.2 mph 18.4 mph N/A   Clear
9:55 AM 39.6 °F 32.1 °F 28.9 °F 66% 30.26 in 10.0 mi NNW 12.7 mph 20.7 mph N/A   Scattered Clouds
10:15 AM 40.1 °F 33.2 °F 28.6 °F 63% 30.23 in 10.0 mi NNW 11.5 mph 20.7 mph N/A   Clear
10:35 AM 40.3 °F 32.2 °F 28.0 °F 62% 30.22 in 10.0 mi NNW 15.0 mph 23.0 mph N/A   Scattered Clouds
10:55 AM 40.5 °F 32.5 °F 27.9 °F 61% 30.22 in 10.0 mi NNW 15.0 mph 23.0 mph N/A   Clear
11:15 AM 41.2 °F 33.0 °F 27.1 °F 57% 30.21 in 10.0 mi North 16.1 mph 29.9 mph N/A   Scattered Clouds
11:35 AM 41.5 °F 33.8 °F 27.9 °F 58% 30.21 in 10.0 mi North 15.0 mph 23.0 mph N/A   Mostly Cloudy
11:55 AM 41.9 °F 36.3 °F 29.1 °F 61% 30.21 in 10.0 mi NNW 9.2 mph 21.9 mph N/A   Mostly Cloudy
12:15 PM 42.6 °F 35.9 °F 29.3 °F 59% 30.21 in 10.0 mi North 12.7 mph 19.6 mph N/A   Overcast
12:35 PM 43.2 °F 36.6 °F 29.7 °F 59% 30.19 in 10.0 mi North 12.7 mph 20.7 mph N/A   Mostly Cloudy
12:55 PM 43.7 °F 37.7 °F 29.7 °F 58% 30.18 in 10.0 mi North 11.5 mph 18.4 mph N/A   Mostly Cloudy
1:15 PM 44.4 °F 37.9 °F 30.2 °F 57% 30.17 in 10.0 mi North 13.8 mph 23.0 mph N/A   Overcast
1:35 PM 45.0 °F 39.7 °F 30.7 °F 57% 30.16 in 10.0 mi North 10.4 mph 16.1 mph N/A   Mostly Cloudy
1:55 PM 45.0 °F 39.3 °F 30.7 °F 57% 30.15 in 10.0 mi North 11.5 mph 20.7 mph N/A   Mostly Cloudy
2:15 PM 44.8 °F 39.4 °F 30.4 °F 57% 30.15 in 10.0 mi North 10.4 mph 19.6 mph N/A   Overcast
2:35 PM 45.5 °F 40.3 °F 29.5 °F 54% 30.14 in 10.0 mi North 10.4 mph 17.3 mph N/A   Overcast
2:55 PM 45.3 °F 39.0 °F 29.3 °F 54% 30.14 in 10.0 mi North 13.8 mph 19.6 mph N/A   Overcast
3:15 PM 45.5 °F 40.8 °F 29.8 °F 54% 30.13 in 10.0 mi North 9.2 mph 19.6 mph N/A   Overcast
3:35 PM 46.0 °F 41.9 °F 30.9 °F 56% 30.12 in 10.0 mi North 8.1 mph - N/A   Overcast
3:55 PM 45.7 °F 41.5 °F 30.7 °F 56% 30.12 in 10.0 mi NNE 8.1 mph 18.4 mph N/A   Overcast
4:15 PM 46.0 °F 42.5 °F 31.3 °F 56% 30.11 in 10.0 mi North 6.9 mph - N/A   Overcast
4:35 PM 45.9 °F 42.9 °F 31.5 °F 57% 30.09 in 10.0 mi North 5.8 mph 17.3 mph N/A   Overcast
4:55 PM 45.7 °F 39.8 °F 31.1 °F 57% 30.09 in 10.0 mi North 12.7 mph 23.0 mph N/A   Overcast
5:15 PM 45.7 °F 40.6 °F 30.9 °F 56% 30.09 in 10.0 mi North 10.4 mph 18.4 mph N/A   Overcast
5:35 PM 46.4 °F 41.5 °F 30.9 °F 55% 30.08 in 10.0 mi North 10.4 mph 16.1 mph N/A   Overcast
5:55 PM 46.4 °F 43.5 °F 30.6 °F 54% 30.08 in 10.0 mi North 5.8 mph 17.3 mph N/A   Overcast
6:15 PM 46.4 °F 43.5 °F 30.9 °F 55% 30.08 in 10.0 mi North 5.8 mph 16.1 mph N/A   Overcast
6:35 PM 46.4 °F 41.1 °F 30.2 °F 53% 30.07 in 10.0 mi North 11.5 mph 21.9 mph N/A   Overcast
6:55 PM 46.8 °F - 30.0 °F 52% 30.06 in 10.0 mi North 12.7 mph 20.7 mph N/A   Overcast
7:15 PM 47.1 °F - 29.8 °F 51% 30.06 in 10.0 mi North 10.4 mph 20.7 mph N/A   Mostly Cloudy
7:35 PM 47.3 °F - 30.2 °F 52% 30.06 in 10.0 mi North 10.4 mph 16.1 mph N/A   Overcast
7:55 PM 47.1 °F - 30.2 °F 52% 30.06 in 10.0 mi North 8.1 mph 18.4 mph N/A   Overcast
8:15 PM 45.9 °F 42.9 °F 31.6 °F 58% 30.06 in 10.0 mi NNE 5.8 mph - N/A   Overcast
8:35 PM 45.1 °F 39.9 °F 30.9 °F 58% 30.08 in 10.0 mi North 10.4 mph 17.3 mph N/A   Overcast
8:55 PM 44.6 °F 41.4 °F 30.2 °F 57% 30.06 in 10.0 mi NNE 5.8 mph - N/A   Overcast
9:15 PM 44.1 °F 38.6 °F 29.1 °F 56% 30.06 in 10.0 mi NNE 10.4 mph 18.4 mph N/A   Overcast
9:35 PM 43.9 °F 39.3 °F 28.6 °F 55% 30.06 in 10.0 mi North 8.1 mph 18.4 mph N/A   Overcast
9:55 PM 43.5 °F 38.9 °F 30.0 °F 59% 30.06 in 10.0 mi NNE 8.1 mph - N/A   Overcast
10:15 PM 43.0 °F 38.2 °F 30.4 °F 61% 30.05 in 10.0 mi North 8.1 mph 17.3 mph N/A   Overcast
10:35 PM 42.4 °F 37.5 °F 31.8 °F 66% 30.06 in 10.0 mi North 8.1 mph - N/A   Overcast
10:55 PM 42.1 °F 36.1 °F 32.0 °F 67% 30.06 in 10.0 mi North 10.4 mph 16.1 mph N/A   Overcast
11:15 PM 41.9 °F 35.9 °F 32.0 °F 68% 30.06 in 10.0 mi North 10.4 mph 17.3 mph N/A   Overcast
11:35 PM 41.2 °F 36.0 °F 32.2 °F 70% 30.05 in 10.0 mi North 8.1 mph - N/A   Overcast
11:55 PM 41.0 °F 37.1 °F 33.1 °F 73% 30.04 in 10.0 mi North 5.8 mph 20.7 mph N/A   Overcast